Koosah.INFO

KSEA Weather Observatons

This table shows observations taken by aircraft in the Seattle, WA, US area since 2019-04-21T04:20:50-0700. By default, it is sorted by time observed in ascending order. Click on a column heading to sort by that column instead. Click again on the same column heading to sort in descending order.

Show observations taken in the last:

Return to main page.

Time Observed Time Received Altitude (ft) Latitude Longitude Temperature (˚C) Wind Direction Wind speed (kn) Frequency (MHz) Source
2019-04-21T05:50:00-0700 2019-04-21T05:50:19-0700 12391 47.1172 -122.2093 -9.0 298 15 130.025 .N317AS
2019-04-21T05:49:00-0700 2019-04-21T05:50:19-0700 11307 47.1471 -122.2229 -7.0 310 13 130.025 .N317AS
2019-04-21T05:49:00-0700 2019-04-21T05:50:19-0700 10597 47.1759 -122.2359 -5.7 317 13 130.025 .N317AS
2019-04-21T06:17:00-0700 2019-04-21T06:18:44-0700 7347 47.2079 -122.2718 1.0 (missing) (missing) 130.025 .N318AS
2019-04-21T06:17:00-0700 2019-04-21T06:18:44-0700 6543 47.2326 -122.2838 -1.5 312 11 130.025 .N318AS
2019-04-21T06:16:00-0700 2019-04-21T06:18:44-0700 5706 47.2568 -122.2962 -0.7 322 10 130.025 .N318AS
2019-04-21T06:16:00-0700 2019-04-21T06:17:05-0700 5580 47.2604 -122.298 -0.5 324 9 130.025 .N318AS
2019-04-21T06:16:00-0700 2019-04-21T06:17:05-0700 4711 47.2848 -122.3073 2.0 345 7 130.025 .N318AS
2019-04-21T06:16:00-0700 2019-04-21T06:17:05-0700 4019 47.3093 -122.3089 3.2 324 3 130.025 .N318AS
2019-04-21T05:47:00-0700 2019-04-21T05:48:31-0700 4452 47.3301 -122.3049 2.0 (missing) (missing) 130.025 .N317AS
2019-04-21T05:46:00-0700 2019-04-21T05:48:31-0700 3377 47.3536 -122.3092 5.0 132 2 130.025 .N317AS
2019-04-21T05:46:00-0700 2019-04-21T05:47:40-0700 2897 47.3663 -122.309 6.0 151 3 130.025 .N317AS
2019-04-21T05:46:00-0700 2019-04-21T05:47:40-0700 2690 47.373 -122.309 6.0 177 5 130.025 .N317AS
2019-04-21T05:46:00-0700 2019-04-21T05:48:31-0700 2615 47.3764 -122.309 6.0 181 6 130.025 .N317AS
2019-04-21T05:46:00-0700 2019-04-21T05:47:40-0700 2537 47.3797 -122.3089 5.5 198 6 130.025 .N317AS
2019-04-21T05:46:00-0700 2019-04-21T05:47:33-0700 2376 47.3859 -122.3089 4.0 (missing) (missing) 130.025 .N317AS
2019-04-21T05:46:00-0700 2019-04-21T05:47:33-0700 2216 47.3919 -122.3087 4.2 215 9 130.025 .N317AS
2019-04-21T05:46:00-0700 2019-04-21T05:47:33-0700 2076 47.3977 -122.3085 3.7 222 10 130.025 .N317AS
2019-04-21T04:26:00-0700 2019-04-21T04:27:05-0700 6493 47.4104 -122.4651 -2.2 310 3 130.025 .N307AS
2019-04-21T04:25:00-0700 2019-04-21T04:27:05-0700 7947 47.4822 -122.4637 0.2 320 3 130.025 .N307AS
2019-04-21T04:24:00-0700 2019-04-21T04:27:05-0700 9302 47.5567 -122.4635 -2.7 306 6 130.025 .N307AS